Skip Page Navigation
NASA JPL Caltech
NASA Logo - Jet Propulsion Laboratory + View the NASA Portal
+ Center for Near-Earth Object Studies
JPL Home Earth Solar System Stars & Galaxies Technology
JPL Solar System Dynamics
BODIES ORBITS EPHEMERIDES TOOLS PHYSICAL DATA DISCOVERY FAQ SITE MAP
JPL Small-Body Database Browser
Search: [ help ]  
72982 (2002 CC248)
Classification: Main-belt Asteroid          SPK-ID: 2072982
Ephemeris | Orbit Diagram | Orbital Elements | Mission Design | Physical Parameters | Discovery Circumstances | Close-Approach Data ]

[ show orbit diagram ]
Orbital Elements at Epoch 2459200.5 (2020-Dec-17.0) TDB
Reference: JPL 25 (heliocentric ecliptic J2000)
 Element Value Uncertainty (1-sigma)   Units 
e .1191808448269722 3.7771e-08  
a 2.393804882056884 1.0306e-08 au
q 2.108509193862414 8.998e-08 au
i 5.773575052522484 4.6002e-06 deg
node 22.86283419550765 3.8612e-05 deg
peri 276.8798159932973 4.3387e-05 deg
M 277.8681653027479 2.0678e-05 deg
tp 2459509.131729869911
(2021-Oct-21.63172987)
7.8518e-05 TDB
period 1352.793629446161
3.70
8.7361e-06
2.392e-08
d
yr
n .266115978197935 1.7185e-09 deg/d
Q 2.679100570251354 1.1534e-08 au
  Orbit Determination Parameters
   # obs. used (total)      967  
   data-arc span      10074 days (27.58 yr)  
   first obs. used      1992-09-28  
   last obs. used      2020-04-28  
   planetary ephem.      DE441  
   SB-pert. ephem.      SB441-N16  
   condition code      0  
   norm. resid. RMS      .56342  
   source      ORB  
   producer      Otto Matic  
   solution date      2021-Apr-13 13:05:08  

Additional Information
 Earth MOID = 1.10069 au 
 Jupiter MOID = 2.51823 au 
 T_jup = 3.514 
[ show covariance matrix ]

Ephemeris | Orbit Diagram | Orbital Elements | Mission Design | Physical Parameters | Discovery Circumstances | Close-Approach Data ]

Physical Parameter Table
Parameter Symbol Value Units Sigma Reference Notes
absolute magnitude H 15.48   n/a E2021B10  

72982 (2002 CC248)          Discovered 2002-Feb-15 by LINEAR at Socorro
Reference: 20031109/Numbers.arcLast Updated: 2004-04-19

[ show close-approach data ]
Ephemeris | Orbit Diagram | Orbital Elements | Mission Design | Physical Parameters | Discovery Circumstances | Close-Approach Data ]
ABOUT SSD CREDITS/AWARDS PRIVACY/COPYRIGHT GLOSSARY LINKS
FirstGov 2021-Jun-21 11:24 UT
(server date/time)  
NASA Home Page
Site Manager:   Ryan S. Park
Webmaster  Alan B. Chamberlin